Location: Turtle Rock Observatory
(36.6913°N, 81.9708°W)
Time: 16:25:17
(UTC-04:00)

Daily predictions for brighter satellites

Satellite Brightness Start Highest point End
(mag) Time Altitude Azimuth Time Altitude Azimuth Time Altitude Azimuth
Cosmos 2056 Rocket 3.8 20:33:28 10° SSW 20:38:35 75° WNW 20:43:47 10° NNE
USA 267 3.5 20:32:26 10° SE 20:38:59 75° SW 20:45:34 10° NW
Cosmos 1975 Rocket 3.3 20:34:47 10° N 20:39:09 50° E 20:43:27 10° SSE
Sich 1 Rocket 4.1 20:34:52 10° SSW 20:39:12 67° W 20:43:35 10° N
Cosmos 405 Rocket 2.7 20:37:15 10° N 20:41:06 89° WSW 20:45:00 10° S
CZ-4C R/B 3.2 20:35:11 10° NW 20:42:34 80° WSW 20:50:37 10° SSE
FengYun 1-2 T 4.5 20:38:57 10° S 20:44:35 80° WSW 20:50:16 10° NNW
Cosmos 2026 Rocket 4.1 20:39:13 10° S 20:45:26 64° E 20:51:44 10° NNE
EXPRESS MD2 2.2 20:44:45 10° SW 20:47:01 86° SE 20:50:23 10° NE
Cosmos 1655 Rocket 4.2 20:44:22 10° SSE 20:50:24 52° E 20:56:30 10° NNE
GPS 2-05 Rocket1 2.8 20:47:10 10° WSW 20:50:31 62° S 20:53:47 10° E
Cosmos 2227 Rocket 4.2 20:49:27 10° NW 20:54:18 30° WSW 20:59:08 10° SSW
Cosmos 1633 2.5 20:53:02 10° S 20:56:36 67° E 21:00:13 10° NNE
Cosmos 2360 Rocket 3.9 20:56:26 11° ESE 20:57:55 12° E 20:59:49 10° ENE
Cosmos 1980 Rocket 2.5 20:52:48 10° SSW 20:58:24 75° WNW 21:04:01 10° NNE
Cosmos 839 Rocket 4.0 20:52:22 10° SSW 20:58:45 72° ESE 21:04:54 10° NNE
YAOGAN 6 4.3 20:57:34 12° ESE 20:59:30 17° ENE 21:01:53 10° NNE
ATLAS 2AS CENTAUR R/B 3.7 20:54:28 10° SSE 21:00:42 29° ESE 21:07:17 10° NE
Cosmos 1452 Rocket 3.5 20:57:14 10° S 21:02:28 71° ESE 21:07:44 10° NNE
USA 186 1.8 21:01:39 10° SSE 21:04:55 65° ENE 21:08:17 10° N
CZ-2D R/B 3.4 21:01:49 10° S 21:05:40 80° WSW 21:09:33 10° NNW
Cosmos 1420 Rocket 4.1 21:01:48 10° S 21:06:46 51° ESE 21:11:48 10° NNE
NOSS 3-1 (A) 4.2 21:01:59 10° SW 21:07:33 55° NW 21:13:48 10° NNE
Cosmos 407 Rocket 3.7 21:05:48 10° NNW 21:11:09 76° WSW 21:16:26 10° S
NOSS 2-3 (E) 4.3 21:07:27 10° S 21:11:39 36° ESE 21:16:16 10° NE
Okean 2 Rocket 3.5 21:07:52 10° SSW 21:12:19 69° W 21:16:50 10° N
Atlas Centaur 2 3.1 21:05:10 10° WSW 21:13:08 53° S 21:18:37 16° ESE
Cosmos 1190 Rocket 4.5 21:08:42 10° NNW 21:13:54 63° WSW 21:19:07 10° S
Helios 1A 4.1 21:11:48 17° ESE 21:14:13 27° ENE 21:17:49 10° NNE
Cosmos 44 Rocket 3.3 21:12:52 10° NNW 21:17:36 66° ENE 21:21:13 17° SE
Resurs 1-3 4.2 21:24:37 10° S 21:28:55 56° W 21:33:15 10° NNW
BREEZE-M DEB (TANK) 3.5 21:26:16 10° WSW 21:30:07 33° NW 21:32:10 10° NNE
Cosmos 676 Rocket 4.2 21:24:55 10° NNW 21:30:14 77° WSW 21:35:26 11° S
Cosmos 2227 4.2 21:26:44 10° NNW 21:32:24 89° ENE 21:36:59 16° SSE
DELTA 2 R/B (1) 3.6 21:28:23 10° WNW 21:34:00 84° SSW 21:37:20 25° ESE
Uosat 12 SS-18 rocket 4.3 21:30:13 10° SSW 21:34:51 85° ESE 21:40:29 10° NNE
Cosmos 1023 Rocket 4.4 21:30:42 10° NNW 21:35:59 83° ENE 21:39:52 19° SSE
SeaSat 1 3.2 21:33:19 10° NNE 21:38:09 56° WNW 21:42:57 10° SW
Meteor 1-11 Rocket 3.7 21:32:34 10° S 21:38:27 81° E 21:44:14 10° N
Spot 2 Rocket 4.3 21:36:10 10° S 21:41:06 50° W 21:46:04 10° NNW
Delta 2 Rocket 4.2 21:37:30 10° SW 21:41:19 32° SSE 21:41:54 31° SE
NOSS 2-3 (C) 3.7 21:40:33 10° SSW 21:45:07 77° ESE 21:50:21 10° NE
Cosmos 1140 Rocket 3.5 21:41:09 10° NNW 21:46:23 80° WSW 21:50:02 20° S
SPOT 5 4.3 21:46:37 21° ENE 21:47:07 21° ENE 21:50:39 10° NNE
SAR-Lupe-4 4.3 21:52:25 36° ENE 21:52:25 36° ENE 21:55:35 10° N
Lacrosse 5 1.9 21:47:46 10° SSW 21:52:42 55° SE 21:57:39 10° NE
Cosmos 614 Rocket 4.0 21:49:17 10° NNW 21:54:24 79° WSW 21:57:22 26° S
S3M 4.2 21:49:11 10° N 21:55:25 72° W 22:01:43 10° S
Resurs 01 Rocket 3.8 21:54:03 10° SSW 21:57:40 24° W 22:01:19 10° NW
Cosmos 1553 Rocket 4.4 21:52:25 10° NNW 21:58:28 61° W 22:04:26 10° S
Cosmos 1939 Rocket 3.7 21:57:18 19° SSW 21:59:57 48° W 22:03:49 10° NNW
Okean 1 Rocket 2.9 21:58:31 39° SSE 22:00:02 69° E 22:04:23 10° NNE
Meteor 1-29 2.7 21:57:13 10° NNE 22:00:39 79° ESE 22:00:43 78° ESE
H-2A R/B 3.2 22:00:55 24° ENE 22:01:09 24° ENE 22:05:09 10° NNE
Cosmos 2315 Rocket 4.3 21:55:45 10° N 22:01:47 48° E 22:03:43 37° SE
GENESIS II 4.0 21:58:34 10° NNW 22:02:30 79° ENE 22:02:54 68° ESE
Cosmos 2266 Rocket 3.8 21:56:41 10° S 22:02:44 89° ESE 22:08:47 10° N
Okean 1-7 Rocket 4.2 22:00:37 10° N 22:04:41 39° ENE 22:04:41 39° ENE
Cosmos 44 4.0 22:00:36 10° NW 22:04:51 43° WSW 22:06:54 27° S
ARGOS 3.6 22:04:28 38° E 22:05:28 42° ENE 22:10:30 10° N
Cosmos 1741 Rocket 3.9 22:01:11 10° NNW 22:06:27 82° ENE 22:08:13 43° SSE
Cosmos 2322 Rocket 2.8 22:00:52 10° SW 22:06:29 59° WNW 22:12:07 10° NNE
Cosmos 1607 4.4 22:00:29 10° NNW 22:06:45 49° NE 22:08:50 37° ESE
Cosmos 1300 Rocket 3.9 22:03:00 12° SSW 22:06:54 62° W 22:11:11 10° N
ERS-1 Rocket 3.0 22:06:15 46° SE 22:07:31 62° ENE 22:12:28 10° N
Meteor 1-23 Rocket 4.1 22:03:04 10° N 22:08:39 73° E 22:10:35 42° SSE
Cosmos 1536 3.4 22:06:18 16° SSW 22:09:23 57° W 22:13:25 10° N
Envisat 4.5 22:05:40 10° SSW 22:10:13 33° W 22:14:48 10° NNW
Cosmos 2263 Rocket 2.2 22:04:40 10° NNW 22:10:22 67° ENE 22:11:56 47° SE
Tiangong 1 2.9 22:08:40 10° NW 22:10:33 24° N 22:10:33 24° N
Helios 1B rocket 3.1 22:10:53 10° N 22:14:53 54° WNW 22:18:03 15° SSW
Lacrosse 5 rocket 2.1 22:12:03 10° WNW 22:15:34 38° SW 22:15:50 38° SW
SL-16 R/B 3.1 22:11:04 10° SW 22:16:31 48° WNW 22:22:01 10° N
CZ-4B DEB 4.1 22:18:26 34° NW 22:18:26 34° NW 22:20:18 10° NNW
Cosmos 1844 Rocket 4.4 22:14:40 10° NNE 22:18:21 17° NE 22:18:48 17° ENE
Cosmos 1025 Rocket 3.2 22:15:34 10° N 22:19:22 57° NE 22:19:22 57° NE
ATLAS 3B R/B 3.4 22:16:09 10° NNW 22:22:18 36° NE 22:23:52 32° ENE
Cosmos 2322 3.6 22:24:06 58° SE 22:24:37 61° ESE 22:30:12 10° NNE
Cosmos 220 Rocket 4.2 22:21:26 10° NNW 22:25:17 61° NE 22:25:17 61° NE
OAO 1 Rocket 4.4 22:21:11 10° WSW 22:26:22 62° S 22:26:22 62° S
USA 245 4.0 22:27:22 61° E 22:27:37 62° ENE 22:32:16 10° N
COSMOS 2428 4.1 22:35:04 24° NE 22:35:04 24° NE 22:37:34 10° NE
Cosmos 1110 Rocket 4.0 22:37:26 46° SW 22:38:59 75° WNW 22:44:10 10° NNE
Cosmos 2360 Rocket 2.2 22:37:59 27° SSW 22:41:07 78° WNW 22:46:47 10° NNE
MetOp-B 4.2 22:40:47 63° SSW 22:41:33 74° WSW 22:46:54 10° NNW
Cosmos 1932 4.3 22:35:43 10° NNW 22:42:13 78° ENE 22:43:03 67° ESE
Terra 3.5 22:45:43 23° NE 22:45:43 23° NE 22:48:10 10° NNE
SL-08 RB Rocket 4.1 22:51:31 60° NNW 22:51:31 60° NNW 22:55:15 10° NNW
ATLAS 2AS CENTAUR R/B 3.5 22:43:40 10° SW 22:51:12 60° NW 22:59:13 10° NNE
Cosmos 1331 Rocket 4.4 22:54:04 51° WSW 22:55:01 60° WNW 23:00:12 10° N
SPOT 1/Viking Rocket 3.8 23:02:52 66° N 23:02:52 66° N 23:07:22 10° NNW
Atlas Centaur 2 3.3 22:55:14 10° W 23:01:14 40° SW 23:01:14 40° SW
Cosmos 1238 Rocket 4.0 23:06:53 10° N 23:13:38 78° W 23:13:45 78° WSW
Aureole 3 Rocket 4.3 23:12:27 10° N 23:20:58 74° W 23:21:30 71° SW
Nadezhda 1 Rocket 4.3 23:18:19 10° N 23:23:30 59° NNE 23:23:30 59° NNE
SPOT 5 4.2 23:25:52 35° WNW 23:25:52 35° WNW 23:29:25 10° NNW
Lacrosse 5 3.9 23:31:42 10° W 23:35:55 26° NW 23:40:08 10° NNE
H-2A R/B 3.6 23:41:34 30° WNW 23:41:34 30° WNW 23:44:57 10° NNW
NOSS 3-2 (A) 4.2 23:43:18 10° NNW 23:50:24 65° NE 23:50:24 65° NE
USA 238 DEB 4.0 23:43:49 10° NW 23:49:51 62° WNW 23:49:51 62° WNW
USA 238 4.0 23:43:55 10° NW 23:49:57 62° WNW 23:49:57 62° WNW
Cosmos 2278 Rocket 3.8 23:46:26 10° N 23:49:36 28° NNE 23:49:36 28° NNE
Cosmos 2263 Rocket 4.5 23:50:42 10° WNW 23:53:36 14° W 23:53:38 14° W
